KG5APU Weather Reports


Display with metric or nautical units.
time (UTC)temp
F
wind
direction
speed
MPH
gust
MPH
rain 1hr
in
rain 24hr
in
rain mn
in
humidity
%
barometer
mb
20260906223048 99 158 4.0 6.0 0.00 0.00 0.00 41 1011.9
20260906222046 99 128 3.0 6.0 0.00 0.00 0.00 41 1012.0
20260906221040 100 155 4.0 6.0 0.00 0.00 0.00 42 1012.1
20260906220036 100 146 3.0 5.0 0.00 0.00 0.00 41 1011.8
20260906215033 99 108 1.0 2.0 0.00 0.00 0.00 41 1011.9
20260906214033 99 95 3.0 3.0 0.00 0.00 0.00 43 1011.9
20260906213032 100 160 5.0 9.0 0.00 0.00 0.00 42 1012.0
20260906212027 100 126 2.0 2.0 0.00 0.00 0.00 43 1012.0
20260906211022 100 147 2.0 5.0 0.00 0.00 0.00 42 1012.4
20260906210017 100 188 1.0 2.0 0.00 0.00 0.00 41 1012.5
20260906205015 100 91 5.0 7.0 0.00 0.00 0.00 41 1012.8
20260906204015 100 117 2.0 2.0 0.00 0.00 0.00 43 1012.9
20260906203009 99 140 1.0 3.0 0.00 0.00 0.00 42 1013.0
20260906202007 99 151 2.0 3.0 0.00 0.00 0.00 43 1013.0
20260906201001 99 145 2.0 3.0 0.00 0.00 0.00 45 1013.3
20260906195957 99 145 3.0 5.0 0.00 0.00 0.00 45 1013.1
20260906194955 99 110 4.0 5.0 0.00 0.00 0.00 46 1013.7
20260906193952 99 69 7.0 9.0 0.00 0.00 0.00 44 1013.6
20260906192948 98 87 6.0 8.0 0.00 0.00 0.00 43 1013.5
20260906191948 98 161 4.0 7.0 0.00 0.00 0.00 45 1013.6
20260906190947 97 89 3.0 5.0 0.00 0.00 0.00 46 1013.8
20260906185948 97 83 5.0 7.0 0.00 0.00 0.00 46 1013.8
20260906184946 98 167 2.0 2.0 0.00 0.00 0.00 46 1013.9
20260906183942 98 132 3.0 5.0 0.00 0.00 0.00 47 1013.9
20260906182940 98 96 3.0 3.0 0.00 0.00 0.00 46 1014.4
20260906181937 97 74 4.0 7.0 0.00 0.00 0.00 47 1014.3
20260906180934 97 93 2.0 2.0 0.00 0.00 0.00 47 1014.5
20260906175932 96 90 7.0 8.0 0.00 0.00 0.00 49 1014.8
20260906174931 95 114 2.0 2.0 0.00 0.00 0.00 51 1014.7
20260906173927 94 141 1.0 1.0 0.00 0.00 0.00 53 1014.8
20260906172927 95 208 5.0 6.0 0.00 0.00 0.00 54 1015.1
20260906171924 95 123 1.0 1.0 0.00 0.00 0.00 56 1015.1
20260906170920 95 156 2.0 3.0 0.00 0.00 0.00 54 1015.3
20260906165919 95 149 1.0 1.0 0.00 0.00 0.00 54 1015.3
20260906164920 94 137 4.0 6.0 0.00 0.00 0.00 55 1015.4
20260906163915 95 132 4.0 6.0 0.00 0.00 0.00 55 1015.4
20260906162914 94 145 3.0 3.0 0.00 0.00 0.00 56 1015.6
20260906161914 93 155 1.0 2.0 0.00 0.00 0.00 59 1015.7
20260906160913 92 140 1.0 1.0 0.00 0.00 0.00 62 1015.4
20260906155910 91 158 3.0 3.0 0.00 0.00 0.00 63 1015.4
20260906154907 90 150 2.0 2.0 0.00 0.00 0.00 67 1015.6
20260906153906 90 147 1.0 2.0 0.00 0.00 0.00 67 1015.3
20260906152900 89 143 1.0 2.0 0.00 0.00 0.00 69 1015.3
20260906151859 87 142 0.0 1.0 0.00 0.00 0.00 72 1015.4
20260906150857 87 146 3.0 3.0 0.00 0.00 0.00 72 1015.3
20260906145851 87 143 2.0 3.0 0.00 0.00 0.00 74 1015.2
20260906144851 87 137 0.0 1.0 0.00 0.00 0.00 75 1015.4
20260906143846 86 138 3.0 3.0 0.00 0.00 0.00 75 1015.2
20260906142844 86 141 0.0 1.0 0.00 0.00 0.00 77 1015.4
20260906141838 85 145 1.0 1.0 0.00 0.00 0.00 78 1015.4
20260906140838 84 143 0.0 1.0 0.00 0.00 0.00 80 1015.2
20260906135836 84 140 0.0 1.0 0.00 0.00 0.00 81 1015.3
20260906134832 83 142 1.0 2.0 0.00 0.00 0.00 82 1015.0
20260906133828 83 143 1.0 2.0 0.00 0.00 0.00 83 1015.1
20260906132825 82 141 0.0 0.0 0.00 0.00 0.00 84 1015.3
20260906131822 81 144 1.0 1.0 0.00 0.00 0.00 85 1015.2
20260906130819 81 143 0.0 0.0 0.00 0.00 0.00 87 1015.2
20260906125817 80 143 0.0 0.0 0.00 0.00 0.00 88 1014.9
20260906124815 79 143 0.0 0.0 0.00 0.00 0.00 91 1015.0
20260906123810 78 144 0.0 0.0 0.00 0.00 0.00 92 1015.0
20260906122805 77 144 0.0 0.0 0.00 0.00 0.00 93 1014.7
20260906121803 77 145 0.0 0.0 0.00 0.00 0.00 93 1014.8
20260906120800 77 142 0.0 1.0 0.00 0.00 0.00 93 1014.6
20260906115758 77 145 0.0 0.0 0.00 0.00 0.00 93 1014.5
20260906114758 77 143 0.0 0.0 0.00 0.00 0.00 93 1014.5
20260906113755 77 143 0.0 0.0 0.00 0.00 0.00 93 1014.2
20260906112754 77 138 0.0 0.0 0.00 0.00 0.00 93 1014.2
20260906111750 77 136 0.0 0.0 0.00 0.00 0.00 92 1014.2
20260906110750 77 142 0.0 0.0 0.00 0.00 0.00 92 1014.2
20260906105745 77 142 0.0 0.0 0.00 0.00 0.00 92 1014.0
20260906104743 77 140 0.0 0.0 0.00 0.00 0.00 92 1014.3
20260906103739 77 142 0.0 0.0 0.00 0.00 0.00 91 1014.2
20260906102735 78 141 0.0 0.0 0.00 0.00 0.00 91 1014.1
20260906101736 78 142 0.0 0.0 0.00 0.00 0.00 90 1014.1
20260906100731 78 137 0.0 0.0 0.00 0.00 0.00 90 1013.9
20260906095726 78 146 0.0 0.0 0.00 0.00 0.00 89 1013.9
20260906094726 79 145 0.0 0.0 0.00 0.00 0.00 89 1013.7
20260906093724 79 135 0.0 0.0 0.00 0.00 0.00 88 1013.7
20260906092720 79 148 0.0 0.0 0.00 0.00 0.00 88 1013.5
20260906091716 80 152 0.0 1.0 0.00 0.00 0.00 87 1013.5
20260906090714 80 161 1.0 1.0 0.00 0.00 0.00 87 1013.4
20260906085713 80 147 0.0 0.0 0.00 0.00 0.00 87 1013.5
20260906084712 80 152 2.0 2.0 0.00 0.00 0.00 87 1013.4
20260906083707 80 145 0.0 0.0 0.00 0.00 0.00 87 1013.1
20260906082704 80 157 1.0 1.0 0.00 0.00 0.00 87 1013.2
20260906081701 80 159 1.0 1.0 0.00 0.00 0.00 87 1013.5
20260906080658 80 166 1.0 2.0 0.00 0.00 0.00 86 1013.2
20260906075654 80 158 0.0 0.0 0.00 0.00 0.00 86 1013.5
20260906074649 81 156 1.0 1.0 0.00 0.00 0.00 85 1013.2
20260906073649 81 164 1.0 1.0 0.00 0.00 0.00 84 1013.4
20260906072646 80 153 1.0 1.0 0.00 0.00 0.00 84 1013.5
20260906071644 80 154 0.0 1.0 0.00 0.00 0.00 85 1013.6
20260906070640 80 155 1.0 2.0 0.00 0.00 0.00 85 1013.5
20260906065635 80 147 0.0 0.0 0.00 0.00 0.00 84 1013.7
20260906064631 81 155 0.0 1.0 0.00 0.00 0.00 84 1013.6
20260906063627 81 148 0.0 0.0 0.00 0.00 0.00 83 1013.4
20260906062625 81 153 2.0 2.0 0.00 0.00 0.00 82 1013.7
20260906061625 82 146 1.0 1.0 0.00 0.00 0.00 81 1013.5
20260906060621 82 152 1.0 1.0 0.00 0.00 0.00 80 1013.6
20260906055620 83 148 0.0 0.0 0.00 0.00 0.00 78 1013.9
20260906054616 83 175 3.0 3.0 0.00 0.00 0.00 76 1014.0
20260906053613 83 185 2.0 2.0 0.00 0.00 0.00 76 1013.9
20260906052609 83 167 1.0 2.0 0.00 0.00 0.00 77 1013.6
20260906051608 83 149 1.0 2.0 0.00 0.00 0.00 77 1013.8
20260906050604 83 169 3.0 5.0 0.00 0.00 0.00 77 1013.7
20260906045603 83 150 1.0 2.0 0.00 0.00 0.00 78 1013.6
20260906044600 83 170 2.0 2.0 0.00 0.00 0.00 79 1013.4
20260906043557 83 149 0.0 0.0 0.00 0.00 0.00 78 1013.5
20260906042557 83 149 2.0 2.0 0.00 0.00 0.00 77 1013.6
20260906041554 84 172 2.0 2.0 0.00 0.00 0.00 77 1013.7
20260906040550 84 156 0.0 1.0 0.00 0.00 0.00 76 1013.6
20260906035546 84 171 2.0 2.0 0.00 0.00 0.00 76 1014.0
20260906034542 84 152 2.0 3.0 0.00 0.00 0.00 74 1013.8
20260906033538 85 171 2.0 2.0 0.00 0.00 0.00 73 1013.5
20260906032535 85 139 1.0 1.0 0.00 0.00 0.00 73 1013.7
20260906031531 85 148 1.0 1.0 0.00 0.00 0.00 72 1013.6
20260906030526 85 164 2.0 2.0 0.00 0.00 0.00 71 1013.5
20260906025526 85 151 1.0 1.0 0.00 0.00 0.00 70 1013.6
20260906024525 86 180 2.0 2.0 0.00 0.00 0.00 69 1013.5
20260906023521 86 141 1.0 2.0 0.00 0.00 0.00 68 1013.4
20260906022517 86 146 1.0 2.0 0.00 0.00 0.00 67 1013.3
20260906021514 87 162 1.0 2.0 0.00 0.00 0.00 67 1013.1
20260906020513 87 170 2.0 3.0 0.00 0.00 0.00 66 1013.0
20260906015512 87 152 3.0 3.0 0.00 0.00 0.00 65 1012.9
20260906014507 87 146 2.0 2.0 0.00 0.00 0.00 64 1012.9
20260906013503 88 145 4.0 6.0 0.00 0.00 0.00 62 1012.7
20260906012500 88 163 2.0 2.0 0.00 0.00 0.00 62 1012.4
20260906011455 88 168 3.0 3.0 0.00 0.00 0.00 61 1012.5
20260906010451 89 144 5.0 8.0 0.00 0.00 0.00 62 1012.1
20260906005447 90 162 4.0 5.0 0.00 0.00 0.00 60 1012.1
20260906004445 91 147 4.0 5.0 0.00 0.00 0.00 58 1012.2
20260906003441 92 125 4.0 6.0 0.00 0.00 0.00 54 1011.9
20260906002436 94 112 5.0 8.0 0.00 0.00 0.00 53 1012.0
20260906001433 97 156 1.0 2.0 0.00 0.00 0.00 49 1011.9
20260906000429 98 136 1.0 2.0 0.00 0.00 0.00 44 1011.6
20260905235424 99 141 0.0 1.0 0.00 0.00 0.00 42 1011.8
20260905234420 99 144 1.0 1.0 0.00 0.00 0.00 42 1011.3
20260905233416 99 149 0.0 0.0 0.00 0.00 0.00 43 1011.3
20260905232411 98 159 1.0 1.0 0.00 0.00 0.00 44 1011.4
20260905231408 99 195 2.0 2.0 0.00 0.00 0.00 43 1011.4
20260905230408 100 178 0.0 1.0 0.00 0.00 0.00 42 1011.4
20260905225408 100 202 2.0 2.0 0.00 0.00 0.00 42 1011.5
20260905224405 100 174 3.0 3.0 0.00 0.00 0.00 41 1011.4